Starlink 33859

operational
NORAD ID: 63640 Int'l Des: 2025-083 Owner: SPXS Country: US Constellation: starlink
LEOCIRCULAR

关于 Starlink 33859

正在加载描述...

实时位置

正在加载3D地球...

即将过境

高度历史

Altitude vs Time

uPlot chart will show altitude changes over time

两行轨道根数

1 63640U 25083G 25260.03106631 .00019762 00000-0 72572-3 0 9993
2 63640 43.0011 266.3265 0001746 267.0517 93.0135 15.27580188 23502
Epoch: Sep 17, 2025 • Age: 11 hours

当前状态

高度 482.7 km
速度 7.63 km/s
星下点 0.24°N, 91.36°E
发射日期 Apr 25, 2025
运行时间 0.3 years
类型 internet

技术详情

分类 Payload
质量 575.00 kg
干质量 530.00 kg
总质量 575.00 kg
长度 0.30 m
直径 4.10 m
跨度 29.00 m
形状 Box + pan
制造商 SPXS
平台类型 Starlink V2MO
阶段状态 In Orbit
所有者/国家 SPXS/US

大型星座

Loading constellations...